QPF
0.01 0.01 0.03 0.04 0.03 0.02 0.02 0.02 0.01 0.03 0.05 0.03 0.01 0.01 0.01 0.01 0.01 0.02 0.02 0.02 0.01 0.02 0.04 0.08 0.08 0.05 0.06 0.06 0.08 0.08 0.08 0.08 0.09 0.08 0.08 0.07 0.08 0.10 0.13 0.09 0.07 0.08 0.07 0.06 0.06 0.06 0.05 0.07 0.10
0.01 0.01 0.02 0.05 0.04 0.01 0.01 0.01 0.01 0.03 0.04 0.01 0.00 0.00 0.00 0.01 0.01 0.02 0.02 0.02 0.02 0.03 0.03 0.06 0.06 0.06 0.07 0.07 0.08 0.09 0.07 0.06 0.07 0.09 0.09 0.11 0.10 0.11 0.11 0.08 0.08 0.09 0.09 0.07 0.05 0.05 0.05 0.07 0.10
0.02 0.02 0.03 0.04 0.02 0.01 0.01 0.02 0.02 0.03 0.03 0.01 0.00 0.00 0.01 0.02 0.01 0.01 0.01 0.01 0.02 0.02 0.01 0.04 0.06 0.06 0.06 0.07 0.10 0.11 0.08 0.04 0.05 0.06 0.07 0.09 0.08 0.09 0.09 0.09 0.08 0.12 0.11 0.09 0.07 0.06 0.06 0.09 0.12
0.03 0.03 0.03 0.02 0.01 0.01 0.02 0.02 0.02 0.02 0.02 0.01 0.00 0.00 0.02 0.02 0.02 0.01 0.01 0.01 0.01 0.01 0.02 0.05 0.06 0.04 0.04 0.04 0.05 0.07 0.05 0.06 0.06 0.06 0.06 0.06 0.07 0.09 0.10 0.10 0.10 0.13 0.15 0.12 0.10 0.09 0.08 0.10 0.12
0.04 0.03 0.02 0.01 0.00 0.01 0.01 0.01 0.00 0.01 0.02 0.01 0.00 0.01 0.02 0.03 0.01 0.00 0.00 0.01 0.01 0.01 0.03 0.07 0.08 0.06 0.06 0.05 0.04 0.04 0.06 0.07 0.06 0.06 0.05 0.05 0.06 0.07 0.09 0.09 0.09 0.10 0.12 0.12 0.12 0.11 0.10 0.09 0.13
0.03 0.03 0.01 0.00 0.01 0.01 0.01 0.01 0.00 0.00 0.00 0.01 0.00 0.00 0.02 0.02 0.01 0.00 0.00 0.00 0.00 0.00 0.03 0.06 0.06 0.07 0.08 0.06 0.04 0.05 0.07 0.08 0.08 0.07 0.05 0.05 0.07 0.08 0.08 0.08 0.08 0.09 0.10 0.10 0.12 0.10 0.09 0.10 0.14
0.03 0.03 0.01 0.00 0.00 0.01 0.00 0.00 0.00 0.00 0.00 0.00 0.00 0.00 0.02 0.02 0.01 0.01 0.01 0.00 0.01 0.01 0.02 0.03 0.03 0.06 0.06 0.06 0.07 0.09 0.11 0.11 0.08 0.06 0.05 0.06 0.07 0.06 0.05 0.06 0.06 0.08 0.09 0.09 0.10 0.09 0.11 0.11 0.14
0.03 0.03 0.01 0.00 0.00 0.00 0.00 0.00 0.00 0.00 0.00 0.00 0.00 0.01 0.02 0.02 0.01 0.01 0.00 0.01 0.01 0.02 0.02 0.02 0.02 0.04 0.05 0.08 0.13 0.19 0.19 0.11 0.07 0.07 0.07 0.06 0.06 0.06 0.05 0.07 0.06 0.08 0.10 0.10 0.10 0.10 0.11 0.12 0.10
0.04 0.02 0.00 0.00 0.00 0.00 0.00 0.00 0.01 0.01 0.00 0.00 0.00 0.01 0.02 0.01 0.01 0.01 0.01 0.01 0.01 0.03 0.03 0.03 0.02 0.02 0.04 0.07 0.11 0.18 0.19 0.14 0.09 0.06 0.06 0.05 0.03 0.04 0.03 0.05 0.08 0.10 0.12 0.12 0.13 0.11 0.12 0.12 0.09
0.02 0.01 0.00 0.00 0.00 0.00 0.00 0.00 0.01 0.01 0.01 0.01 0.01 0.01 0.01 0.01 0.01 0.01 0.01 0.01 0.02 0.04 0.05 0.04 0.02 0.02 0.03 0.06 0.09 0.11 0.12 0.08 0.05 0.04 0.04 0.02 0.03 0.02 0.03 0.06 0.10 0.12 0.16 0.15 0.13 0.10 0.15 0.11 0.06
0.01 0.00 0.00 0.00 0.00 0.00 0.00 0.00 0.01 0.01 0.01 0.01 0.01 0.02 0.02 0.01 0.01 0.01 0.01 0.01 0.01 0.02 0.03 0.04 0.02 0.02 0.02 0.05 0.08 0.08 0.05 0.03 0.03 0.03 0.02 0.03 0.04 0.04 0.04 0.05 0.06 0.10 0.13 0.11 0.10 0.10 0.10 0.06 0.03
0.00 0.00 0.00 0.00 0.00 0.00 0.00 0.00 0.00 0.01 0.01 0.01 0.01 0.01 0.01 0.01 0.01 0.01 0.01 0.01 0.01 0.02 0.02 0.02 0.02 0.02 0.03 0.04 0.05 0.04 0.03 0.03 0.02 0.02 0.02 0.04 0.06 0.06 0.07 0.05 0.04 0.07 0.08 0.08 0.09 0.07 0.06 0.06 0.04
0.00 0.00 0.00 0.00 0.00 0.00 0.00 0.00 0.00 0.01 0.00 0.00 0.01 0.01 0.01 0.01 0.01 0.01 0.01 0.01 0.02 0.02 0.02 0.03 0.02 0.03 0.04 0.05 0.04 0.03 0.03 0.02 0.02 0.02 0.02 0.04 0.07 0.07 0.06 0.06 0.06 0.07 0.06 0.07 0.08 0.08 0.07 0.05 0.04
0.00 0.00 0.00 0.00 0.00 0.00 0.00 0.00 0.01 0.01 0.01 0.00 0.01 0.01 0.01 0.01 0.01 0.01 0.01 0.01 0.01 0.01 0.02 0.02 0.03 0.03 0.05 0.05 0.04 0.04 0.04 0.03 0.02 0.02 0.02 0.04 0.05 0.05 0.03 0.04 0.05 0.05 0.04 0.04 0.07 0.11 0.13 0.13 0.11
0.01 0.00 0.00 0.00 0.00 0.01 0.01 0.01 0.01 0.01 0.01 0.00 0.01 0.01 0.02 0.01 0.01 0.01 0.01 0.00 0.00 0.01 0.01 0.02 0.04 0.03 0.03 0.03 0.03 0.04 0.05 0.05 0.03 0.02 0.03 0.03 0.02 0.02 0.02 0.03 0.04 0.03 0.03 0.03 0.06 0.08 0.11 0.16 0.19
0.00 0.00 0.00 0.00 0.01 0.01 0.01 0.01 0.01 0.01 0.00 0.01 0.01 0.01 0.01 0.00 0.00 0.00 0.00 0.00 0.00 0.00 0.00 0.01 0.02 0.03 0.02 0.02 0.02 0.03 0.04 0.06 0.03 0.02 0.03 0.05 0.04 0.03 0.03 0.03 0.03 0.03 0.02 0.03 0.04 0.03 0.07 0.12 0.14
0.00 0.00 0.00 0.00 0.00 0.00 0.00 0.00 0.00 0.00 0.00 0.00 0.00 0.00 0.00 0.00 0.00 0.00 0.00 0.00 0.00 0.00 0.00 0.01 0.02 0.03 0.03 0.03 0.03 0.03 0.04 0.04 0.03 0.02 0.04 0.04 0.05 0.04 0.04 0.04 0.03 0.03 0.01 0.02 0.03 0.02 0.04 0.07 0.10
0.00 0.00 0.00 0.00 0.00 0.00 0.00 0.00 0.00 0.00 0.00 0.00 0.00 0.00 0.00 0.00 0.00 0.00 0.00 0.00 0.00 0.00 0.00 0.00 0.01 0.04 0.04 0.03 0.04 0.05 0.07 0.09 0.08 0.06 0.03 0.03 0.04 0.04 0.03 0.04 0.04 0.03 0.03 0.03 0.03 0.03 0.04 0.05 0.08
0.00 0.00 0.01 0.01 0.00 0.00 0.00 0.00 0.00 0.00 0.00 0.00 0.00 0.00 0.00 0.00 0.00 0.00 0.00 0.00 0.00 0.00 0.00 0.00 0.01 0.06 0.07 0.05 0.04 0.03 0.05 0.07 0.05 0.04 0.03 0.02 0.03 0.03 0.04 0.05 0.05 0.04 0.03 0.04 0.04 0.03 0.04 0.04 0.06
0.00 0.01 0.01 0.01 0.01 0.00 0.00 0.00 0.00 0.00 0.00 0.00 0.00 0.00 0.00 0.00 0.00 0.00 0.00 0.00 0.00 0.00 0.00 0.01 0.01 0.07 0.08 0.06 0.05 0.04 0.04 0.04 0.03 0.03 0.03 0.03 0.04 0.04 0.04 0.07 0.09 0.06 0.05 0.05 0.05 0.04 0.04 0.04 0.05
0.00 0.01 0.01 0.00 0.01 0.00 0.00 0.00 0.00 0.00 0.00 0.00 0.00 0.00 0.00 0.00 0.00 0.00 0.00 0.00 0.00 0.00 0.00 0.01 0.03 0.06 0.05 0.06 0.06 0.08 0.06 0.06 0.05 0.04 0.04 0.05 0.06 0.07 0.07 0.08 0.12 0.11 0.08 0.08 0.08 0.07 0.07 0.07 0.08
0.00 0.00 0.00 0.00 0.01 0.01 0.00 0.00 0.00 0.00 0.00 0.00 0.00 0.00 0.00 0.00 0.00 0.00 0.00 0.00 0.00 0.00 0.00 0.00 0.02 0.04 0.03 0.05 0.07 0.11 0.06 0.05 0.06 0.05 0.07 0.09 0.12 0.14 0.13 0.11 0.14 0.22 0.20 0.14 0.09 0.08 0.08 0.09 0.10
0.00 0.00 0.00 0.00 0.00 0.00 0.00 0.00 0.00 0.00 0.00 0.00 0.00 0.00 0.00 0.00 0.00 0.00 0.00 0.00 0.00 0.00 0.00 0.00 0.01 0.01 0.02 0.03 0.05 0.07 0.06 0.04 0.05 0.04 0.07 0.09 0.11 0.12 0.13 0.12 0.11 0.13 0.13 0.10 0.06 0.07 0.06 0.06 0.07
0.00 0.00 0.00 0.00 0.00 0.00 0.00 0.00 0.00 0.00 0.00 0.00 0.00 0.00 0.00 0.00 0.00 0.00 0.01 0.00 0.00 0.00 0.01 0.01 0.01 0.00 0.00 0.01 0.03 0.04 0.04 0.03 0.02 0.02 0.06 0.07 0.05 0.05 0.07 0.06 0.04 0.05 0.06 0.06 0.06 0.07 0.06 0.05 0.05
0.00 0.00 0.00 0.00 0.00 0.00 0.00 0.00 0.00 0.00 0.00 0.00 0.00 0.00 0.00 0.00 0.00 0.00 0.00 0.00 0.01 0.01 0.00 0.01 0.01 0.01 0.00 0.01 0.02 0.02 0.02 0.02 0.01 0.01 0.04 0.03 0.01 0.01 0.02 0.03 0.04 0.05 0.07 0.07 0.05 0.06 0.05 0.05 0.05
0.00 0.00 0.00 0.00 0.00 0.00 0.00 0.00 0.00 0.00 0.00 0.00 0.00 0.00 0.00 0.00 0.00 0.00 0.00 0.01 0.01 0.01 0.01 0.00 0.01 0.01 0.01 0.01 0.02 0.01 0.01 0.02 0.02 0.01 0.01 0.01 0.00 0.00 0.01 0.02 0.02 0.02 0.04 0.06 0.05 0.05 0.05 0.04 0.03
0.00 0.00 0.00 0.00 0.00 0.00 0.00 0.00 0.01 0.00 0.00 0.00 0.00 0.00 0.00 0.00 0.00 0.00 0.00 0.01 0.01 0.01 0.00 0.01 0.01 0.01 0.01 0.01 0.01 0.01 0.00 0.01 0.01 0.01 0.01 0.01 0.01 0.01 0.01 0.01 0.01 0.02 0.02 0.05 0.04 0.05 0.06 0.04 0.04
0.00 0.00 0.00 0.00 0.00 0.01 0.00 0.00 0.00 0.00 0.00 0.00 0.00 0.00 0.00 0.00 0.00 0.00 0.00 0.01 0.01 0.01 0.01 0.02 0.03 0.02 0.02 0.02 0.01 0.01 0.00 0.00 0.00 0.00 0.01 0.01 0.01 0.01 0.00 0.01 0.01 0.02 0.02 0.04 0.05 0.05 0.05 0.05 0.06
0.00 0.00 0.00 0.00 0.00 0.00 0.00 0.00 0.00 0.00 0.00 0.00 0.00 0.00 0.00 0.00 0.00 0.00 0.00 0.00 0.01 0.02 0.02 0.04 0.05 0.03 0.03 0.03 0.02 0.01 0.01 0.01 0.00 0.00 0.00 0.00 0.00 0.01 0.01 0.00 0.00 0.01 0.02 0.03 0.03 0.03 0.04 0.04 0.05
0.00 0.00 0.00 0.00 0.00 0.00 0.00 0.00 0.00 0.00 0.00 0.00 0.00 0.00 0.00 0.00 0.00 0.00 0.00 0.00 0.01 0.01 0.02 0.03 0.04 0.04 0.03 0.03 0.02 0.02 0.02 0.01 0.01 0.00 0.00 0.00 0.00 0.00 0.00 0.00 0.01 0.01 0.01 0.02 0.02 0.02 0.02 0.03 0.04
MSLP
1006.24 1007.32 1008.44 1009.46 1010.22 1010.66 1010.76 1010.58 1010.21 1009.78 1009.39 1009.09 1008.89 1008.73 1008.53 1008.20 1007.68 1006.94 1006.02 1005.02 1004.05 1003.21 1002.60 1002.26 1002.19 1002.32 1002.57 1002.87 1003.13 1003.33 1003.45 1003.54 1003.63 1003.76 1003.98 1004.29 1004.68 1005.13 1005.60 1006.05 1006.46 1006.83 1007.15 1007.46 1007.78 1008.15 1008.60 1009.15 1009.80
1006.72 1007.90 1009.06 1010.03 1010.70 1010.99 1010.91 1010.53 1009.97 1009.35 1008.80 1008.35 1008.03 1007.78 1007.54 1007.23 1006.78 1006.18 1005.45 1004.66 1003.89 1003.21 1002.69 1002.36 1002.22 1002.22 1002.32 1002.48 1002.64 1002.80 1002.96 1003.13 1003.34 1003.59 1003.89 1004.24 1004.62 1005.02 1005.41 1005.80 1006.18 1006.55 1006.91 1007.29 1007.69 1008.13 1008.63 1009.20 1009.85
1007.34 1008.57 1009.72 1010.61 1011.15 1011.27 1011.02 1010.47 1009.75 1008.98 1008.28 1007.71 1007.28 1006.96 1006.68 1006.39 1006.03 1005.57 1005.02 1004.41 1003.80 1003.21 1002.69 1002.27 1001.94 1001.71 1001.57 1001.51 1001.55 1001.69 1001.93 1002.27 1002.68 1003.15 1003.64 1004.11 1004.54 1004.93 1005.28 1005.62 1005.96 1006.32 1006.73 1007.18 1007.68 1008.21 1008.78 1009.38 1010.05
1008.05 1009.27 1010.34 1011.12 1011.51 1011.49 1011.09 1010.42 1009.59 1008.73 1007.94 1007.28 1006.78 1006.40 1006.10 1005.83 1005.54 1005.20 1004.79 1004.31 1003.76 1003.16 1002.52 1001.86 1001.21 1000.62 1000.13 999.80 999.68 999.81 1000.18 1000.77 1001.50 1002.31 1003.10 1003.81 1004.39 1004.84 1005.20 1005.51 1005.83 1006.20 1006.66 1007.19 1007.79 1008.42 1009.07 1009.73 1010.41
1008.74 1009.89 1010.84 1011.48 1011.73 1011.59 1011.10 1010.37 1009.51 1008.63 1007.82 1007.14 1006.60 1006.19 1005.88 1005.63 1005.40 1005.13 1004.79 1004.35 1003.77 1003.03 1002.13 1001.09 999.99 998.91 997.98 997.31 997.02 997.14 997.69 998.60 999.77 1001.03 1002.24 1003.29 1004.13 1004.73 1005.16 1005.48 1005.81 1006.20 1006.71 1007.33 1008.03 1008.77 1009.51 1010.23 1010.92
1009.31 1010.34 1011.14 1011.62 1011.74 1011.52 1011.00 1010.30 1009.49 1008.67 1007.92 1007.28 1006.75 1006.35 1006.04 1005.80 1005.59 1005.35 1005.02 1004.53 1003.81 1002.82 1001.55 1000.04 998.38 996.74 995.31 994.28 993.78 993.92 994.67 995.97 997.62 999.40 1001.13 1002.61 1003.77 1004.60 1005.15 1005.54 1005.89 1006.32 1006.88 1007.57 1008.38 1009.22 1010.06 1010.83 1011.55
1009.69 1010.55 1011.17 1011.50 1011.52 1011.26 1010.78 1010.16 1009.48 1008.80 1008.17 1007.62 1007.16 1006.79 1006.49 1006.26 1006.05 1005.79 1005.41 1004.81 1003.90 1002.60 1000.91 998.88 996.65 994.45 992.52 991.12 990.45 990.60 991.57 993.25 995.39 997.72 999.96 1001.90 1003.42 1004.50 1005.21 1005.68 1006.08 1006.54 1007.15 1007.91 1008.80 1009.74 1010.66 1011.49 1012.23
1009.86 1010.53 1010.97 1011.15 1011.09 1010.83 1010.44 1009.96 1009.46 1008.96 1008.50 1008.07 1007.70 1007.37 1007.09 1006.86 1006.63 1006.34 1005.88 1005.16 1004.04 1002.45 1000.37 997.88 995.16 992.47 990.13 988.43 987.60 987.78 988.94 990.95 993.52 996.32 999.02 1001.36 1003.20 1004.51 1005.37 1005.92 1006.37 1006.86 1007.50 1008.32 1009.27 1010.29 1011.28 1012.17 1012.93
1009.85 1010.33 1010.60 1010.66 1010.55 1010.32 1010.03 1009.71 1009.40 1009.11 1008.82 1008.53 1008.24 1007.96 1007.69 1007.45 1007.20 1006.86 1006.35 1005.52 1004.26 1002.46 1000.12 997.32 994.26 991.24 988.62 986.72 985.81 986.01 987.32 989.57 992.44 995.56 998.57 1001.19 1003.26 1004.72 1005.68 1006.29 1006.76 1007.27 1007.94 1008.79 1009.79 1010.87 1011.91 1012.84 1013.62
1009.75 1010.07 1010.20 1010.16 1010.01 1009.82 1009.64 1009.48 1009.35 1009.23 1009.09 1008.92 1008.70 1008.45 1008.19 1007.93 1007.65 1007.29 1006.75 1005.89 1004.57 1002.71 1000.28 997.37 994.20 991.07 988.36 986.40 985.47 985.70 987.08 989.43 992.42 995.67 998.81 1001.53 1003.67 1005.19 1006.18 1006.80 1007.28 1007.80 1008.47 1009.34 1010.38 1011.49 1012.56 1013.52 1014.30
1009.67 1009.87 1009.88 1009.76 1009.60 1009.45 1009.36 1009.33 1009.34 1009.36 1009.33 1009.22 1009.04 1008.80 1008.52 1008.24 1007.94 1007.58 1007.06 1006.24 1005.00 1003.23 1000.91 998.13 995.08 992.08 989.47 987.60 986.72 986.98 988.34 990.64 993.56 996.72 999.76 1002.40 1004.46 1005.92 1006.87 1007.46 1007.92 1008.44 1009.12 1010.00 1011.04 1012.17 1013.25 1014.21 1014.99
1009.72 1009.82 1009.75 1009.59 1009.42 1009.30 1009.27 1009.32 1009.43 1009.52 1009.55 1009.47 1009.29 1009.02 1008.71 1008.40 1008.09 1007.74 1007.28 1006.58 1005.52 1003.98 1001.96 999.50 996.80 994.13 991.81 990.15 989.39 989.66 990.93 993.05 995.71 998.58 1001.34 1003.71 1005.55 1006.85 1007.69 1008.23 1008.67 1009.19 1009.87 1010.76 1011.81 1012.92 1014.00 1014.94 1015.69
1009.95 1009.99 1009.87 1009.68 1009.50 1009.40 1009.41 1009.51 1009.65 1009.77 1009.80 1009.72 1009.51 1009.20 1008.84 1008.49 1008.16 1007.84 1007.47 1006.92 1006.10 1004.90 1003.28 1001.30 999.10 996.91 995.01 993.65 993.06 993.33 994.44 996.26 998.53 1000.96 1003.28 1005.26 1006.79 1007.87 1008.58 1009.06 1009.49 1010.02 1010.72 1011.62 1012.66 1013.76 1014.80 1015.70 1016.40
1010.38 1010.38 1010.24 1010.03 1009.85 1009.76 1009.77 1009.87 1010.01 1010.12 1010.13 1010.01 1009.76 1009.41 1009.01 1008.62 1008.28 1007.98 1007.68 1007.29 1006.72 1005.87 1004.71 1003.26 1001.62 999.98 998.55 997.55 997.14 997.40 998.31 999.77 1001.58 1003.49 1005.29 1006.83 1008.01 1008.85 1009.43 1009.88 1010.33 1010.90 1011.64 1012.55 1013.57 1014.63 1015.62 1016.45 1017.10
1010.93 1010.91 1010.76 1010.55 1010.38 1010.29 1010.30 1010.38 1010.50 1010.57 1010.55 1010.40 1010.12 1009.74 1009.31 1008.89 1008.53 1008.24 1007.99 1007.72 1007.35 1006.81 1006.05 1005.09 1003.99 1002.89 1001.93 1001.28 1001.04 1001.29 1002.00 1003.09 1004.42 1005.80 1007.11 1008.21 1009.07 1009.72 1010.21 1010.65 1011.15 1011.78 1012.56 1013.49 1014.49 1015.50 1016.41 1017.17 1017.75
1011.51 1011.49 1011.34 1011.15 1010.99 1010.90 1010.90 1010.96 1011.04 1011.08 1011.04 1010.87 1010.58 1010.20 1009.78 1009.36 1008.99 1008.69 1008.46 1008.24 1008.00 1007.66 1007.21 1006.63 1005.98 1005.32 1004.77 1004.42 1004.34 1004.57 1005.10 1005.87 1006.77 1007.71 1008.57 1009.32 1009.93 1010.43 1010.88 1011.36 1011.93 1012.64 1013.47 1014.40 1015.37 1016.31 1017.13 1017.80 1018.30
1012.03 1012.01 1011.89 1011.73 1011.60 1011.52 1011.51 1011.54 1011.59 1011.61 1011.55 1011.39 1011.13 1010.79 1010.40 1010.01 1009.65 1009.35 1009.09 1008.88 1008.66 1008.43 1008.14 1007.81 1007.46 1007.14 1006.89 1006.78 1006.83 1007.06 1007.46 1007.98 1008.56 1009.14 1009.68 1010.17 1010.61 1011.04 1011.50 1012.04 1012.70 1013.47 1014.34 1015.26 1016.17 1017.02 1017.74 1018.32 1018.74
1012.41 1012.43 1012.36 1012.26 1012.17 1012.11 1012.10 1012.11 1012.12 1012.10 1012.04 1011.90 1011.70 1011.43 1011.13 1010.80 1010.48 1010.17 1009.89 1009.62 1009.37 1009.13 1008.89 1008.68 1008.50 1008.37 1008.33 1008.39 1008.55 1008.80 1009.12 1009.48 1009.85 1010.20 1010.54 1010.87 1011.23 1011.64 1012.13 1012.75 1013.47 1014.29 1015.16 1016.04 1016.88 1017.62 1018.23 1018.71 1019.06
1012.64 1012.72 1012.74 1012.73 1012.71 1012.69 1012.67 1012.65 1012.61 1012.55 1012.47 1012.35 1012.21 1012.05 1011.85 1011.63 1011.38 1011.10 1010.79 1010.47 1010.15 1009.83 1009.56 1009.34 1009.22 1009.19 1009.27 1009.44 1009.68 1009.97 1010.28 1010.57 1010.83 1011.07 1011.31 1011.58 1011.90 1012.33 1012.86 1013.52 1014.28 1015.10 1015.94 1016.74 1017.47 1018.09 1018.60 1018.98 1019.26
1012.74 1012.94 1013.09 1013.21 1013.29 1013.31 1013.28 1013.20 1013.09 1012.95 1012.82 1012.71 1012.61 1012.54 1012.47 1012.37 1012.23 1012.02 1011.73 1011.37 1010.98 1010.58 1010.22 1009.96 1009.82 1009.82 1009.95 1010.20 1010.51 1010.86 1011.19 1011.48 1011.72 1011.94 1012.15 1012.40 1012.72 1013.16 1013.72 1014.38 1015.13 1015.90 1016.66 1017.36 1017.96 1018.46 1018.85 1019.14 1019.37
1012.79 1013.16 1013.50 1013.78 1013.97 1014.05 1014.00 1013.84 1013.60 1013.34 1013.11 1012.94 1012.86 1012.85 1012.89 1012.94 1012.93 1012.83 1012.61 1012.27 1011.84 1011.39 1010.96 1010.64 1010.46 1010.45 1010.61 1010.90 1011.27 1011.68 1012.07 1012.40 1012.67 1012.90 1013.12 1013.38 1013.71 1014.13 1014.66 1015.29 1015.96 1016.65 1017.29 1017.86 1018.33 1018.70 1018.99 1019.21 1019.40
1012.88 1013.47 1014.03 1014.51 1014.82 1014.94 1014.85 1014.58 1014.19 1013.75 1013.36 1013.08 1012.95 1012.97 1013.10 1013.27 1013.42 1013.45 1013.35 1013.09 1012.70 1012.24 1011.79 1011.42 1011.22 1011.20 1011.36 1011.68 1012.11 1012.57 1013.01 1013.40 1013.72 1013.97 1014.21 1014.46 1014.76 1015.15 1015.61 1016.15 1016.72 1017.28 1017.79 1018.22 1018.56 1018.83 1019.03 1019.19 1019.35
1013.08 1013.91 1014.72 1015.39 1015.83 1015.98 1015.84 1015.43 1014.84 1014.19 1013.60 1013.16 1012.93 1012.92 1013.10 1013.38 1013.66 1013.86 1013.91 1013.77 1013.47 1013.07 1012.65 1012.29 1012.08 1012.06 1012.23 1012.57 1013.02 1013.52 1014.00 1014.43 1014.77 1015.04 1015.27 1015.49 1015.75 1016.06 1016.44 1016.87 1017.31 1017.74 1018.11 1018.42 1018.66 1018.83 1018.97 1019.09 1019.23
1013.41 1014.49 1015.52 1016.36 1016.91 1017.09 1016.88 1016.32 1015.53 1014.65 1013.83 1013.20 1012.84 1012.76 1012.95 1013.30 1013.71 1014.06 1014.26 1014.28 1014.12 1013.82 1013.47 1013.16 1012.97 1012.95 1013.12 1013.46 1013.92 1014.43 1014.92 1015.35 1015.69 1015.95 1016.15 1016.33 1016.52 1016.75 1017.03 1017.34 1017.67 1017.98 1018.24 1018.45 1018.61 1018.72 1018.81 1018.91 1019.03
1013.84 1015.11 1016.33 1017.32 1017.94 1018.12 1017.83 1017.14 1016.17 1015.07 1014.04 1013.22 1012.71 1012.56 1012.72 1013.10 1013.60 1014.09 1014.44 1014.61 1014.60 1014.42 1014.17 1013.92 1013.77 1013.76 1013.93 1014.25 1014.69 1015.17 1015.64 1016.04 1016.35 1016.58 1016.74 1016.86 1016.98 1017.14 1017.32 1017.55 1017.78 1018.00 1018.19 1018.34 1018.44 1018.51 1018.58 1018.65 1018.76
1014.30 1015.70 1017.02 1018.09 1018.74 1018.90 1018.55 1017.75 1016.64 1015.38 1014.19 1013.22 1012.59 1012.35 1012.48 1012.88 1013.43 1014.00 1014.48 1014.78 1014.89 1014.84 1014.68 1014.51 1014.39 1014.40 1014.55 1014.84 1015.22 1015.65 1016.06 1016.42 1016.68 1016.86 1016.97 1017.04 1017.12 1017.21 1017.34 1017.51 1017.69 1017.87 1018.02 1018.14 1018.21 1018.26 1018.31 1018.36 1018.44
1014.70 1016.14 1017.48 1018.54 1019.18 1019.30 1018.89 1018.02 1016.83 1015.49 1014.22 1013.17 1012.48 1012.19 1012.28 1012.67 1013.25 1013.87 1014.42 1014.81 1015.02 1015.06 1014.99 1014.87 1014.79 1014.80 1014.93 1015.17 1015.50 1015.86 1016.20 1016.49 1016.70 1016.83 1016.90 1016.94 1016.99 1017.06 1017.17 1017.32 1017.49 1017.66 1017.81 1017.92 1017.99 1018.02 1018.04 1018.06 1018.11
1014.99 1016.35 1017.61 1018.59 1019.15 1019.21 1018.77 1017.88 1016.69 1015.36 1014.10 1013.06 1012.37 1012.07 1012.15 1012.53 1013.10 1013.73 1014.30 1014.74 1015.00 1015.10 1015.09 1015.02 1014.97 1014.98 1015.09 1015.29 1015.55 1015.84 1016.11 1016.34 1016.49 1016.59 1016.64 1016.68 1016.72 1016.80 1016.93 1017.09 1017.28 1017.46 1017.62 1017.74 1017.81 1017.84 1017.83 1017.81 1017.80
1015.13 1016.33 1017.41 1018.23 1018.67 1018.65 1018.18 1017.32 1016.20 1014.97 1013.81 1012.87 1012.25 1011.99 1012.08 1012.45 1012.99 1013.59 1014.14 1014.58 1014.86 1015.00 1015.03 1015.00 1014.97 1014.99 1015.09 1015.25 1015.47 1015.70 1015.92 1016.10 1016.22 1016.30 1016.34 1016.39 1016.46 1016.57 1016.72 1016.92 1017.14 1017.34 1017.52 1017.65 1017.71 1017.72 1017.68 1017.61 1017.54
1015.16 1016.12 1016.96 1017.57 1017.84 1017.74 1017.25 1016.46 1015.46 1014.39 1013.40 1012.62 1012.12 1011.94 1012.05 1012.41 1012.91 1013.45 1013.96 1014.36 1014.63 1014.78 1014.84 1014.85 1014.86 1014.91 1015.01 1015.16 1015.35 1015.55 1015.74 1015.88 1015.99 1016.06 1016.11 1016.18 1016.27 1016.42 1016.61 1016.83 1017.07 1017.29 1017.48 1017.61 1017.66 1017.64 1017.56 1017.45 1017.31
Thickness
5802 5800 5797 5787 5770 5752 5747 5759 5769 5770 5772 5780 5783 5778 5769 5764 5759 5756 5777 5786 5787 5786 5787 5786 5786 5786 5786 5786 5785 5785 5785 5785 5784 5784 5783 5782 5781 5780 5780 5779 5778 5778 5777 5775 5774 5773 5772 5770 5769
5804 5801 5792 5779 5756 5738 5745 5764 5767 5773 5780 5785 5784 5779 5771 5768 5774 5775 5779 5785 5786 5786 5786 5785 5785 5785 5784 5784 5784 5784 5783 5783 5783 5782 5782 5781 5781 5780 5779 5779 5778 5777 5776 5775 5774 5773 5771 5770 5768
5806 5802 5784 5769 5754 5744 5751 5768 5773 5780 5787 5786 5779 5778 5773 5769 5776 5778 5783 5786 5785 5785 5785 5784 5784 5783 5783 5783 5783 5783 5782 5782 5782 5782 5781 5781 5780 5779 5778 5777 5777 5776 5775 5774 5773 5772 5771 5770 5768
5804 5793 5782 5764 5756 5762 5768 5775 5780 5780 5784 5786 5780 5771 5775 5781 5781 5783 5786 5786 5784 5783 5784 5784 5783 5782 5782 5782 5782 5781 5781 5781 5781 5780 5780 5780 5779 5779 5778 5777 5776 5775 5775 5774 5773 5772 5771 5770 5768
5803 5786 5767 5755 5760 5772 5780 5784 5785 5779 5778 5780 5778 5768 5769 5781 5787 5786 5785 5785 5783 5782 5783 5783 5782 5781 5781 5781 5781 5780 5780 5780 5779 5779 5779 5779 5778 5778 5777 5777 5776 5775 5774 5773 5772 5771 5770 5769 5768
5791 5780 5756 5749 5762 5776 5783 5788 5785 5779 5778 5780 5777 5768 5769 5781 5783 5784 5785 5784 5783 5782 5782 5782 5781 5781 5780 5780 5780 5780 5779 5779 5779 5778 5778 5777 5777 5777 5777 5776 5775 5775 5774 5773 5772 5771 5770 5769 5767
5786 5773 5760 5760 5763 5772 5783 5791 5784 5779 5777 5779 5781 5767 5770 5778 5783 5785 5784 5784 5783 5782 5781 5781 5780 5780 5780 5780 5780 5779 5778 5778 5778 5777 5777 5777 5776 5776 5775 5775 5774 5774 5773 5772 5771 5771 5770 5769 5767
5796 5777 5765 5763 5766 5772 5788 5791 5790 5785 5781 5790 5786 5769 5767 5778 5784 5784 5783 5782 5782 5781 5781 5780 5780 5780 5780 5780 5780 5779 5778 5778 5777 5776 5776 5775 5775 5775 5774 5774 5773 5773 5772 5771 5771 5770 5769 5768 5767
5802 5772 5761 5770 5772 5779 5791 5788 5790 5796 5789 5788 5788 5783 5783 5786 5784 5781 5778 5778 5779 5780 5780 5780 5780 5780 5780 5780 5780 5779 5778 5777 5776 5775 5775 5774 5774 5773 5773 5773 5773 5772 5772 5771 5770 5770 5769 5768 5767
5794 5770 5776 5790 5791 5790 5793 5790 5790 5787 5781 5780 5782 5785 5787 5784 5781 5777 5775 5774 5775 5777 5779 5780 5780 5780 5779 5779 5780 5779 5777 5776 5775 5774 5774 5773 5773 5773 5772 5772 5772 5772 5772 5771 5770 5769 5768 5767 5766
5797 5785 5795 5801 5803 5800 5794 5793 5795 5784 5775 5780 5779 5780 5782 5781 5778 5776 5776 5776 5777 5778 5780 5781 5780 5780 5779 5778 5777 5777 5776 5775 5775 5774 5774 5773 5773 5772 5772 5772 5772 5771 5771 5771 5770 5769 5768 5767 5766
5801 5803 5806 5806 5808 5802 5797 5795 5791 5788 5787 5794 5792 5788 5783 5779 5777 5777 5777 5778 5779 5779 5780 5781 5781 5780 5779 5778 5777 5777 5776 5775 5774 5774 5774 5773 5772 5772 5771 5771 5771 5771 5770 5769 5768 5767 5767 5766 5765
5804 5805 5811 5812 5809 5806 5801 5795 5792 5791 5797 5798 5793 5788 5783 5781 5780 5781 5781 5781 5780 5780 5781 5781 5782 5781 5780 5779 5778 5777 5776 5775 5774 5774 5773 5773 5772 5771 5771 5771 5770 5770 5769 5769 5767 5767 5766 5765 5763
5810 5809 5810 5811 5810 5808 5799 5795 5793 5791 5798 5794 5790 5786 5785 5783 5782 5781 5781 5780 5781 5781 5782 5783 5782 5782 5780 5779 5778 5776 5775 5775 5774 5773 5773 5773 5772 5772 5771 5770 5769 5769 5768 5768 5767 5766 5764 5763 5762
5815 5805 5804 5807 5808 5806 5801 5788 5791 5797 5797 5791 5788 5787 5786 5785 5784 5783 5783 5783 5783 5783 5784 5783 5784 5782 5781 5779 5778 5776 5775 5774 5773 5773 5773 5773 5772 5771 5770 5769 5768 5767 5767 5766 5765 5763 5762 5761 5760
5807 5793 5783 5800 5805 5805 5794 5776 5794 5800 5796 5789 5788 5788 5786 5786 5787 5787 5787 5786 5786 5785 5785 5785 5786 5783 5781 5780 5778 5777 5776 5774 5773 5773 5773 5772 5772 5771 5769 5767 5766 5765 5765 5764 5762 5761 5759 5758 5757
5786 5778 5779 5792 5805 5803 5793 5783 5797 5801 5797 5790 5789 5789 5787 5786 5787 5789 5790 5789 5789 5788 5786 5785 5785 5783 5782 5780 5779 5777 5776 5775 5773 5773 5772 5772 5771 5770 5768 5766 5764 5763 5762 5762 5761 5759 5758 5756 5754
5777 5779 5782 5786 5801 5800 5791 5789 5797 5801 5798 5793 5791 5790 5789 5788 5789 5793 5793 5792 5791 5789 5788 5786 5785 5783 5782 5781 5779 5777 5776 5775 5774 5773 5772 5772 5771 5770 5768 5765 5764 5762 5761 5759 5758 5757 5755 5754 5753
5794 5787 5783 5792 5807 5799 5791 5790 5795 5800 5797 5794 5792 5791 5790 5791 5795 5796 5796 5795 5792 5790 5788 5786 5784 5783 5782 5779 5777 5775 5773 5773 5773 5773 5772 5771 5770 5769 5767 5765 5763 5761 5759 5758 5757 5754 5752 5751 5750
5797 5788 5787 5796 5807 5799 5790 5791 5799 5802 5801 5800 5797 5795 5795 5794 5794 5795 5795 5795 5793 5790 5789 5787 5786 5784 5783 5781 5780 5778 5775 5773 5773 5773 5772 5771 5770 5768 5767 5764 5762 5760 5758 5756 5754 5753 5750 5749 5748
5796 5791 5791 5792 5799 5800 5792 5785 5794 5802 5806 5805 5804 5801 5800 5799 5796 5796 5796 5795 5794 5792 5791 5790 5788 5786 5785 5783 5781 5778 5775 5773 5771 5770 5770 5770 5769 5768 5766 5764 5762 5759 5757 5755 5753 5752 5749 5746 5746
5790 5806 5803 5797 5783 5772 5782 5760 5785 5794 5797 5801 5803 5803 5803 5805 5803 5800 5799 5797 5796 5796 5795 5792 5790 5788 5786 5784 5781 5777 5772 5769 5769 5769 5769 5769 5768 5766 5765 5763 5761 5758 5757 5755 5754 5752 5749 5747 5744
5804 5813 5804 5795 5780 5769 5774 5762 5774 5791 5789 5799 5806 5809 5810 5810 5809 5806 5804 5803 5801 5800 5797 5794 5792 5789 5787 5785 5782 5778 5774 5772 5770 5769 5768 5768 5767 5766 5764 5762 5760 5758 5756 5755 5753 5752 5750 5748 5745
5814 5802 5790 5777 5766 5752 5767 5761 5766 5783 5795 5805 5811 5814 5816 5815 5814 5811 5809 5806 5804 5802 5799 5796 5792 5790 5788 5786 5783 5779 5776 5772 5770 5768 5766 5766 5765 5764 5762 5761 5759 5757 5755 5754 5753 5752 5750 5748 5746
5804 5778 5753 5748 5739 5745 5767 5763 5771 5803 5812 5815 5816 5818 5820 5819 5816 5813 5809 5806 5804 5802 5800 5797 5793 5790 5789 5786 5784 5781 5778 5774 5771 5768 5766 5764 5763 5762 5761 5759 5757 5756 5755 5754 5753 5751 5749 5747 5745
5794 5782 5752 5739 5736 5746 5763 5762 5788 5815 5821 5824 5824 5823 5822 5820 5819 5816 5814 5811 5808 5805 5802 5799 5795 5792 5790 5787 5784 5782 5779 5776 5773 5770 5767 5765 5763 5762 5760 5758 5756 5755 5754 5753 5751 5749 5747 5746 5743
5788 5777 5779 5753 5748 5743 5753 5771 5795 5816 5817 5820 5821 5821 5820 5820 5820 5819 5817 5814 5811 5808 5804 5801 5797 5793 5791 5788 5785 5782 5780 5777 5774 5771 5768 5766 5763 5761 5759 5757 5755 5753 5752 5750 5749 5746 5745 5743 5741
5798 5781 5762 5748 5735 5733 5750 5763 5776 5801 5808 5814 5816 5817 5819 5820 5820 5819 5818 5816 5813 5810 5806 5803 5799 5795 5792 5789 5785 5783 5780 5777 5774 5771 5768 5765 5763 5760 5758 5755 5753 5752 5750 5748 5746 5744 5743 5740 5739
5784 5776 5761 5747 5747 5735 5734 5758 5803 5807 5812 5812 5815 5818 5818 5819 5819 5819 5818 5816 5813 5810 5806 5802 5798 5794 5790 5787 5784 5781 5779 5776 5773 5770 5768 5765 5762 5759 5756 5754 5751 5749 5747 5745 5744 5742 5740 5738 5736
5794 5781 5766 5754 5746 5740 5739 5761 5816 5816 5818 5816 5817 5818 5819 5819 5819 5818 5817 5814 5810 5807 5804 5801 5797 5793 5789 5786 5782 5779 5777 5774 5771 5768 5766 5764 5761 5759 5756 5753 5750 5748 5745 5743 5741 5739 5737 5735 5733